,,Stat1,,Stat2,,Stat3,,Stat4,,Wind1,,Wind1,
time,status,PR1M_SUM,status,RH1M_AVG,status,SR1M_AVG,status,TA1M_AVG,status,W1dAve1m,status,W1sAve1m,
2000-03-07, 00:01:00,VALID,0,VALID,92.3795,VALID,0.0169808,VALID,16.1779,VALID,224,VALID,0.422461,
2000-03-07, 00:02:00,VALID,0,VALID,92.8208,VALID,0.0169808,VALID,16.1263,VALID,217,VALID,0.366976,
2000-03-07, 00:03:00,VALID,0,VALID,92.8068,VALID,0,VALID,16.1003,VALID,210,VALID,0.370477,
2000-03-07, 00:04:00,VALID,0,VALID,92.7737,VALID,0.0679233,VALID,16.0646,VALID,194,VALID,0.402444,
2000-03-07, 00:05:00,VALID,0,VALID,93.0904,VALID,0,VALID,16.0648,VALID,185,VALID,0.574958,
2000-03-07, 00:06:01,VALID,0,VALID,93.8482,VALID,0,VALID,16.0777,VALID,185,VALID,0.585938,
2000-03-07, 00:07:00,VALID,0,VALID,93.7999,VALID,0.0169808,VALID,16.1331,VALID,185,VALID,0.428043,
2000-03-07, 00:08:00,VALID,0,VALID,93.2188,VALID,0.0169808,VALID,16.1646,VALID,183,VALID,0.428906,
2000-03-07, 00:09:00,VALID,0,VALID,94.0212,VALID,0.0339617,VALID,16.21,VALID,183,VALID,0.494256,
2000-03-07, 00:10:00,VALID,0,VALID,93.2862,VALID,0.0169808,VALID,16.2231,VALID,183,VALID,0.435389,
2000-03-07, 00:11:00,VALID,0,VALID,92.8182,VALID,0.0169808,VALID,16.2074,VALID,186,VALID,0.35432,
2000-03-07, 00:12:00,VALID,0,VALID,92.803,VALID,0,VALID,16.1749,VALID,191,VALID,0.398872,
2000-03-07, 00:13:00,VALID,0,VALID,93.6079,VALID,0.0169808,VALID,16.1523,VALID,193,VALID,0.524877,
2000-03-07, 00:14:00,VALID,0,VALID,93.791,VALID,0,VALID,16.1327,VALID,203,VALID,0.470395,
2000-03-07, 00:15:00,VALID,0,VALID,93.5825,VALID,0.0169808,VALID,16.0777,VALID,211,VALID,0.734756,
2000-03-07, 00:16:00,VALID,0,VALID,94.4039,VALID,0.0169808,VALID,16.0359,VALID,215,VALID,0.694468,
2000-03-07, 00:17:01,VALID,0,VALID,94.7485,VALID,-0.0509425,VALID,16.0206,VALID,211,VALID,0.592272,
2000-03-07, 00:18:00,VALID,0,VALID,94.5565,VALID,-0.101885,VALID,16.0152,VALID,211,VALID,0.421875,
2000-03-07, 00:19:00,VALID,0,VALID,93.6575,VALID,-0.101885,VALID,15.9859,VALID,211,VALID,0.235156,
2000-03-07, 00:20:00,VALID,0,VALID,93.9614,VALID,-0.0679233,VALID,15.9657,VALID,212,VALID,0.286106,
2000-03-07, 00:21:00,VALID,0,VALID,95.2661,VALID,-0.0679233,VALID,15.9821,VALID,212,VALID,0.261623,
2000-03-07, 00:22:00,VALID,0,VALID,95.57,VALID,-0.0679233,VALID,15.9825,VALID,206,VALID,0.356419,
2000-03-07, 00:23:00,VALID,0,VALID,95.6654,VALID,-0.101885,VALID,15.9758,VALID,179,VALID,0.555321,
2000-03-07, 00:24:00,VALID,0,VALID,95.9248,VALID,-0.0679233,VALID,15.992,VALID,176,VALID,0.654447,
2000-03-07, 00:25:00,VALID,0,VALID,95.9413,VALID,-0.0679233,VALID,15.9821,VALID,176,VALID,0.511308,
2000-03-07, 00:26:00,VALID,0,VALID,95.6539,VALID,-0.0849042,VALID,15.9661,VALID,175,VALID,0.519426,
2000-03-07, 00:27:00,VALID,0,VALID,95.9082,VALID,-0.118866,VALID,15.9565,VALID,174,VALID,0.419613,
2000-03-07, 00:28:00,VALID,0,VALID,95.748,VALID,-0.101885,VALID,15.9601,VALID,178,VALID,0.314904,
2000-03-07, 00:29:00,VALID,0,VALID,95.7747,VALID,-0.0849042,VALID,15.9341,VALID,188,VALID,0.332732,
2000-03-07, 00:30:00,VALID,0,VALID,96.2274,VALID,-0.0849042,VALID,15.9631,VALID,189,VALID,0.372396,
2000-03-07, 00:31:00,VALID,0,VALID,96.0964,VALID,-0.0849042,VALID,15.9665,VALID,189,VALID,0.310033,
2000-03-07, 00:32:00,VALID,0,VALID,96.324,VALID,-0.101885,VALID,15.9821,VALID,189,VALID,0.440039,
2000-03-07, 00:33:00,VALID,0,VALID,96.3012,VALID,-0.0679233,VALID,15.9889,VALID,189,VALID,0.464433,
2000-03-07, 00:34:00,VALID,0,VALID,96.1664,VALID,-0.0679233,VALID,15.9922,VALID,189,VALID,0.398003,
2000-03-07, 00:35:00,VALID,0,VALID,95.425,VALID,-0.101885,VALID,15.9567,VALID,189,VALID,0.41246,
2000-03-07, 00:36:00,VALID,0,VALID,95.8459,VALID,-0.101885,VALID,15.9369,VALID,180,VALID,0.60773,
2000-03-07, 00:37:00,VALID,0,VALID,96.0494,VALID,-0.0849042,VALID,15.9762,VALID,180,VALID,0.501715,
2000-03-07, 00:38:01,VALID,0,VALID,95.7188,VALID,-0.0849042,VALID,16.0051,VALID,180,VALID,0.334671,
2000-03-07, 00:39:00,VALID,0,VALID,95.6959,VALID,-0.101885,VALID,16.0305,VALID,180,VALID,0.338542,
2000-03-07, 00:40:00,VALID,0,VALID,95.6984,VALID,-0.0679233,VALID,16.095,VALID,180,VALID,0.387747,
2000-03-07, 00:41:00,VALID,0,VALID,95.2521,VALID,-0.0849042,VALID,16.1507,VALID,180,VALID,0.461149,
2000-03-07, 00:42:00,VALID,0,VALID,94.3086,VALID,-0.101885,VALID,16.1828,VALID,180,VALID,0.53125,
2000-03-07, 00:43:00,VALID,0,VALID,94.0008,VALID,-0.101885,VALID,16.163,VALID,190,VALID,0.652344,
2000-03-07, 00:44:00,VALID,0,VALID,94.2462,VALID,-0.0849042,VALID,16.1537,VALID,199,VALID,0.468164,
2000-03-07, 00:45:00,VALID,0,VALID,93.5977,VALID,-0.0679233,VALID,16.1535,VALID,208,VALID,0.509191,
2000-03-07, 00:46:00,VALID,0,VALID,93.5926,VALID,-0.101885,VALID,16.1275,VALID,210,VALID,0.550676,
2000-03-07, 00:47:00,VALID,0,VALID,93.5456,VALID,-0.0679233,VALID,16.1051,VALID,212,VALID,0.539752,
2000-03-07, 00:48:00,VALID,0,VALID,93.0827,VALID,0,VALID,16.0755,VALID,212,VALID,0.475911,
2000-03-07, 00:49:00,VALID,0,VALID,93.2938,VALID,0,VALID,16.069,VALID,212,VALID,0.508635,
2000-03-07, 00:50:00,VALID,0,VALID,93.5392,VALID,0.0169808,VALID,16.0654,VALID,211,VALID,0.320518,
2000-03-07, 00:51:00,VALID,0,VALID,93.6753,VALID,0,VALID,16.1013,VALID,211,VALID,0,
2000-03-07, 00:52:00,VALID,0,VALID,93.365,VALID,0,VALID,16.0944,VALID,211,VALID,0,
2000-03-07, 00:53:00,VALID,0,VALID,93.6956,VALID,0,VALID,16.1013,VALID,211,VALID,0.303843,
2000-03-07, 00:54:00,VALID,0,VALID,93.1781,VALID,0.0169808,VALID,16.0718,VALID,213,VALID,0.547903,
2000-03-07, 00:55:00,VALID,0,VALID,93.9347,VALID,0,VALID,16.0486,VALID,215,VALID,0.60918,
2000-03-07, 00:56:00,VALID,0,VALID,94.1254,VALID,0.0339617,VALID,16.0529,VALID,215,VALID,0.738176,
2000-03-07, 00:57:00,VALID,0,VALID,93.5494,VALID,0,VALID,16.0303,VALID,213,VALID,0.465892,
2000-03-07, 00:58:00,VALID,0,VALID,93.8978,VALID,0,VALID,16.0045,VALID,199,VALID,0.440034,
2000-03-07, 00:59:00,VALID,0,VALID,94.47,VALID,0,VALID,15.9784,VALID,182,VALID,0.478252,
2000-03-07, 01:00:01,VALID,0,VALID,94.5031,VALID,0,VALID,15.943,VALID,205,VALID,0.518029,
2000-03-07, 01:01:00,VALID,0,VALID,94.7193,VALID,0.0509425,VALID,15.9038,VALID,204,VALID,0.509252,
2000-03-07, 01:02:00,VALID,0,VALID,94.6392,VALID,0,VALID,15.8655,VALID,207,VALID,0.600929,
2000-03-07, 01:03:00,VALID,0,VALID,95.584,VALID,0,VALID,15.8593,VALID,207,VALID,0.905222,
2000-03-07, 01:04:00,VALID,0,VALID,96.3622,VALID,0,VALID,15.8911,VALID,206,VALID,0.722756,
2000-03-07, 01:05:00,VALID,0,VALID,96.2236,VALID,0.0169808,VALID,15.9234,VALID,206,VALID,0.615585,
2000-03-07, 01:06:00,VALID,0,VALID,96.9026,VALID,0,VALID,15.9653,VALID,201,VALID,0.684696,
2000-03-07, 01:07:00,VALID,0,VALID,97.0222,VALID,0,VALID,16.0494,VALID,215,VALID,0.628495,
2000-03-07, 01:08:00,VALID,0,VALID,96.3304,VALID,-0.0169808,VALID,16.0561,VALID,217,VALID,0.595312,
2000-03-07, 01:09:00,VALID,0,VALID,96.2884,VALID,0,VALID,16.0755,VALID,220,VALID,0.471423,
2000-03-07, 01:10:00,VALID,0,VALID,95.7582,VALID,0.0169808,VALID,16.0654,VALID,219,VALID,0.56901,
2000-03-07, 01:11:01,VALID,0,VALID,95.6666,VALID,0,VALID,16.0587,VALID,218,VALID,0.645232,
2000-03-07, 01:12:00,VALID,0,VALID,96.2846,VALID,0.0169808,VALID,16.0781,VALID,222,VALID,0.562706,
2000-03-07, 01:13:00,VALID,0,VALID,96.3953,VALID,0.0339617,VALID,16.0978,VALID,221,VALID,0.515434,
2000-03-07, 01:14:00,VALID,0,VALID,96.7577,VALID,0,VALID,16.1007,VALID,211,VALID,0.541807,
2000-03-07, 01:15:00,VALID,0,VALID,96.9586,VALID,0,VALID,16.1364,VALID,211,VALID,0.484976,
2000-03-07, 01:16:00,VALID,0,VALID,96.778,VALID,0.0169808,VALID,16.1366,VALID,211,VALID,0.592722,
2000-03-07, 01:17:00,VALID,0,VALID,96.7755,VALID,0,VALID,16.1233,VALID,211,VALID,0.687289,
2000-03-07, 01:18:00,VALID,0,VALID,96.5911,VALID,0.0169808,VALID,16.1366,VALID,213,VALID,0.620066,
2000-03-07, 01:19:00,VALID,0,VALID,96.1702,VALID,0,VALID,16.0944,VALID,221,VALID,0.650288,
2000-03-07, 01:20:00,VALID,0,VALID,96.1562,VALID,0.0169808,VALID,16.0617,VALID,209,VALID,0.635938,
2000-03-07, 01:21:00,VALID,0,VALID,96.7805,VALID,0,VALID,16.0714,VALID,206,VALID,0.775046,
2000-03-07, 01:22:00,VALID,0,VALID,97.1531,VALID,0,VALID,16.1039,VALID,199,VALID,0.917652,
2000-03-07, 01:23:00,VALID,0,VALID,98,VALID,0,VALID,16.2332,VALID,190,VALID,1.37063,
2000-03-07, 01:24:00,VALID,0,VALID,98.1552,VALID,0,VALID,16.3945,VALID,186,VALID,1.17426,
2000-03-07, 01:25:00,VALID,0,VALID,97.836,VALID,0.0509425,VALID,16.5004,VALID,185,VALID,1.20169,
2000-03-07, 01:26:00,VALID,0,VALID,96.8314,VALID,0,VALID,16.5363,VALID,189,VALID,1.00905,
2000-03-07, 01:27:00,VALID,0,VALID,96.9497,VALID,0,VALID,16.5979,VALID,190,VALID,1.12729,
2000-03-07, 01:28:00,VALID,0,VALID,97.0921,VALID,-0.0169808,VALID,16.6751,VALID,186,VALID,1.20671,
2000-03-07, 01:29:00,VALID,0,VALID,96.7615,VALID,0,VALID,16.7399,VALID,189,VALID,1.05933,
2000-03-07, 01:30:00,VALID,0,VALID,96.3126,VALID,0,VALID,16.8077,VALID,190,VALID,1.28207,
2000-03-07, 01:31:00,VALID,0,VALID,95.7925,VALID,-0.0169808,VALID,16.9017,VALID,186,VALID,1.28516,
2000-03-07, 01:32:00,VALID,0,VALID,94.8681,VALID,-0.0169808,VALID,16.9596,VALID,191,VALID,1.15752,
2000-03-07, 01:33:01,VALID,0,VALID,94.5718,VALID,0.0169808,VALID,16.9908,VALID,188,VALID,1.17492,
2000-03-07, 01:34:00,VALID,0,VALID,94.3225,VALID,0,VALID,17.0209,VALID,177,VALID,1.08995,
2000-03-07, 01:35:00,VALID,0,VALID,94.2284,VALID,0,VALID,17.014,VALID,175,VALID,0.889992,
2000-03-07, 01:36:00,VALID,0,VALID,94.2475,VALID,0,VALID,16.9749,VALID,179,VALID,0.839143,
2000-03-07, 01:37:00,VALID,0,VALID,93.9131,VALID,-0.0169808,VALID,16.9234,VALID,195,VALID,0.841694,
2000-03-07, 01:38:00,VALID,0,VALID,94.4344,VALID,0.0169808,VALID,16.8679,VALID,197,VALID,1.07538,
2000-03-07, 01:39:00,VALID,0,VALID,94.54,VALID,0,VALID,16.8587,VALID,186,VALID,1.22656,
2000-03-07, 01:40:00,VALID,0,VALID,94.6875,VALID,0,VALID,16.8718,VALID,180,VALID,0.971154,
2000-03-07, 01:41:00,VALID,0,VALID,94.7511,VALID,0,VALID,16.8815,VALID,175,VALID,0.850962,
2000-03-07, 01:42:00,VALID,0,VALID,94.6951,VALID,0,VALID,16.8877,VALID,177,VALID,0.934896,
2000-03-07, 01:43:00,VALID,0,VALID,94.7918,VALID,0,VALID,16.9006,VALID,190,VALID,1.17393,
2000-03-07, 01:44:00,VALID,0,VALID,94.6112,VALID,0,VALID,16.923,VALID,193,VALID,1.13555,
2000-03-07, 01:45:00,VALID,0,VALID,94.5413,VALID,-0.0169808,VALID,16.962,VALID,195,VALID,1.28289,
2000-03-07, 01:46:00,VALID,0,VALID,94.189,VALID,0.0169808,VALID,17.0429,VALID,191,VALID,1.46723,
2000-03-07, 01:47:00,VALID,0,VALID,93.3727,VALID,0.0339617,VALID,17.1137,VALID,196,VALID,1.33053,
2000-03-07, 01:48:00,VALID,0,VALID,92.4978,VALID,0,VALID,17.1845,VALID,201,VALID,1.00987,
2000-03-07, 01:49:00,VALID,0,VALID,93.0484,VALID,0,VALID,17.2103,VALID,205,VALID,0.940549,
2000-03-07, 01:50:00,VALID,0,VALID,93.1082,VALID,0.0169808,VALID,17.2331,VALID,201,VALID,1.13281,
2000-03-07, 01:51:00,VALID,0,VALID,92.939,VALID,0,VALID,17.249,VALID,201,VALID,1.08153,
2000-03-07, 01:52:00,VALID,0,VALID,92.9136,VALID,-0.0169808,VALID,17.2424,VALID,194,VALID,1.06024,
2000-03-07, 01:53:00,VALID,0,VALID,92.7725,VALID,0,VALID,17.2424,VALID,196,VALID,1.08636,
2000-03-07, 01:54:00,VALID,0,VALID,93.0115,VALID,0.0679233,VALID,17.2359,VALID,194,VALID,1.17701,
2000-03-07, 01:55:01,VALID,0,VALID,93.1043,VALID,0.0169808,VALID,17.2361,VALID,192,VALID,1.13919,
2000-03-07, 01:56:00,VALID,0,VALID,93.3307,VALID,0.0169808,VALID,17.2486,VALID,188,VALID,1.09551,
2000-03-07, 01:57:00,VALID,0,VALID,92.8907,VALID,0.0679233,VALID,17.2742,VALID,185,VALID,0.846278,
2000-03-07, 01:58:00,VALID,0,VALID,92.2206,VALID,0,VALID,17.2643,VALID,193,VALID,0.930321,
2000-03-07, 01:59:00,VALID,0,VALID,91.5326,VALID,0.0679233,VALID,17.2159,VALID,202,VALID,0.80193,
2000-03-07, 02:00:00,VALID,0,VALID,92.6224,VALID,0.0169808,VALID,17.1453,VALID,197,VALID,0.987847,
2000-03-07, 02:01:00,VALID,0,VALID,93.1399,VALID,0.0679233,VALID,17.0805,VALID,192,VALID,1.07072,
2000-03-07, 02:02:00,VALID,0,VALID,93.3332,VALID,-0.0169808,VALID,17.0644,VALID,185,VALID,1.24013,
2000-03-07, 02:03:00,VALID,0,VALID,92.6071,VALID,-0.0849042,VALID,17.0947,VALID,174,VALID,1.15854,
2000-03-07, 02:04:00,VALID,0,VALID,92.4177,VALID,-0.0509425,VALID,17.0717,VALID,174,VALID,0.982264,
2000-03-07, 02:05:01,VALID,0,VALID,93.1488,VALID,-0.0679233,VALID,17.0627,VALID,181,VALID,1.13788,
2000-03-07, 02:06:00,VALID,0,VALID,92.7953,VALID,-0.101885,VALID,17.0691,VALID,189,VALID,1.39515,
2000-03-07, 02:07:00,VALID,0,VALID,92.6148,VALID,-0.101885,VALID,17.1113,VALID,185,VALID,1.31973,
2000-03-07, 02:08:00,VALID,0,VALID,92.2498,VALID,-0.0849042,VALID,17.1498,VALID,178,VALID,1.04307,
2000-03-07, 02:09:00,VALID,0,VALID,91.787,VALID,-0.101885,VALID,17.1367,VALID,198,VALID,1.20541,
2000-03-07, 02:10:00,VALID,0,VALID,91.7425,VALID,-0.101885,VALID,17.1113,VALID,195,VALID,1.33024,
2000-03-07, 02:11:00,VALID,0,VALID,91.3839,VALID,-0.0849042,VALID,17.0853,VALID,179,VALID,1.51478,
2000-03-07, 02:12:00,VALID,0,VALID,91.2236,VALID,-0.0849042,VALID,17.0657,VALID,172,VALID,1.14623,
2000-03-07, 02:13:00,VALID,0,VALID,91.6217,VALID,-0.101885,VALID,17.0564,VALID,182,VALID,1.26275,
2000-03-07, 02:14:00,VALID,0,VALID,91.5021,VALID,-0.101885,VALID,17.0334,VALID,189,VALID,1.25739,
2000-03-07, 02:15:00,VALID,0,VALID,91.2402,VALID,-0.0849042,VALID,17.0177,VALID,198,VALID,1.22286,
2000-03-07, 02:16:00,VALID,0,VALID,90.7163,VALID,-0.0849042,VALID,16.9912,VALID,198,VALID,1.40425,
2000-03-07, 02:17:01,VALID,0,VALID,90.1606,VALID,-0.0509425,VALID,17.0205,VALID,195,VALID,1.51242,
2000-03-07, 02:18:00,VALID,0,VALID,89.9152,VALID,0.0169808,VALID,17.061,VALID,192,VALID,1.49079,
2000-03-07, 02:19:00,VALID,0,VALID,89.4599,VALID,0.0509425,VALID,17.1642,VALID,190,VALID,1.3491,
2000-03-07, 02:20:00,VALID,0,VALID,89.006,VALID,0.0169808,VALID,17.2738,VALID,188,VALID,1.3668,
2000-03-07, 02:21:00,VALID,0,VALID,88.711,VALID,0,VALID,17.3969,VALID,194,VALID,1.44922,
2000-03-07, 02:22:00,VALID,0,VALID,88.3295,VALID,0.0339617,VALID,17.4575,VALID,194,VALID,1.19857,
2000-03-07, 02:23:00,VALID,0,VALID,88.6092,VALID,0.0169808,VALID,17.484,VALID,197,VALID,1.00781,
2000-03-07, 02:24:00,VALID,0,VALID,88.6156,VALID,0.0169808,VALID,17.5004,VALID,192,VALID,0.986431,
2000-03-07, 02:25:00,VALID,0,VALID,88.8457,VALID,0,VALID,17.4872,VALID,194,VALID,0.900152,
2000-03-07, 02:26:00,VALID,0,VALID,89.0734,VALID,0.0339617,VALID,17.4773,VALID,192,VALID,1.07306,
2000-03-07, 02:27:00,VALID,0,VALID,89.4358,VALID,0.0169808,VALID,17.4836,VALID,189,VALID,1.17308,
2000-03-07, 02:28:01,VALID,0,VALID,89.067,VALID,0.0339617,VALID,17.5258,VALID,190,VALID,1.08121,
2000-03-07, 02:29:00,VALID,0,VALID,88.8457,VALID,0,VALID,17.5288,VALID,194,VALID,1.02998,
2000-03-07, 02:30:00,VALID,0,VALID,88.7542,VALID,0,VALID,17.4845,VALID,188,VALID,0.901933,
2000-03-07, 02:31:00,VALID,0,VALID,89.0505,VALID,0.0169808,VALID,17.3837,VALID,191,VALID,0.9081,
2000-03-07, 02:32:00,VALID,0,VALID,89.6786,VALID,0,VALID,17.2873,VALID,191,VALID,1.17695,
2000-03-07, 02:33:00,VALID,0,VALID,89.5578,VALID,0.0169808,VALID,17.2578,VALID,181,VALID,0.938189,
2000-03-07, 02:34:00,VALID,0,VALID,89.8948,VALID,0.0169808,VALID,17.2025,VALID,188,VALID,0.848606,
2000-03-07, 02:35:00,VALID,0,VALID,90.3653,VALID,0.0339617,VALID,17.1124,VALID,192,VALID,0.838925,
2000-03-07, 02:36:00,VALID,0,VALID,90.6679,VALID,0.0169808,VALID,17.0386,VALID,186,VALID,0.918186,
2000-03-07, 02:37:00,VALID,0,VALID,90.9693,VALID,0,VALID,16.9964,VALID,186,VALID,0.920436,
2000-03-07, 02:38:00,VALID,0,VALID,91.071,VALID,0.0339617,VALID,16.9865,VALID,186,VALID,1.0405,
2000-03-07, 02:39:01,VALID,0,VALID,90.8879,VALID,0,VALID,16.996,VALID,187,VALID,1.07984,
2000-03-07, 02:40:00,VALID,0,VALID,90.4022,VALID,0,VALID,17.0764,VALID,187,VALID,1.14485,
2000-03-07, 02:41:00,VALID,0,VALID,90.2089,VALID,0.0509425,VALID,17.1218,VALID,187,VALID,1.11486,
2000-03-07, 02:42:00,VALID,0,VALID,90.1237,VALID,0.0339617,VALID,17.1412,VALID,183,VALID,1.10259,
2000-03-07, 02:43:00,VALID,0,VALID,89.6112,VALID,0.0169808,VALID,17.1793,VALID,176,VALID,1.06445,
2000-03-07, 02:44:00,VALID,0,VALID,89.5871,VALID,0.0339617,VALID,17.1864,VALID,171,VALID,0.923142,
2000-03-07, 02:45:00,VALID,0,VALID,89.8134,VALID,0.0169808,VALID,17.1447,VALID,168,VALID,0.851753,
2000-03-07, 02:46:00,VALID,0,VALID,90.3221,VALID,0.0679233,VALID,17.09,VALID,171,VALID,0.756334,
2000-03-07, 02:47:00,VALID,0,VALID,90.6095,VALID,0.0169808,VALID,17.0511,VALID,177,VALID,0.853885,
2000-03-07, 02:48:01,VALID,0,VALID,90.5726,VALID,0.0339617,VALID,17.0736,VALID,189,VALID,1.20733,
2000-03-07, 02:49:00,VALID,0,VALID,90.406,VALID,0.0169808,VALID,17.0934,VALID,182,VALID,0.959498,
2000-03-07, 02:50:01,VALID,0,VALID,90.3742,VALID,0,VALID,17.0962,VALID,175,VALID,0.789485,
2000-03-07, 02:51:00,VALID,0,VALID,90.392,VALID,0.0169808,VALID,17.0962,VALID,174,VALID,0.82977,
2000-03-07, 02:52:00,VALID,0,VALID,90.3742,VALID,0.0169808,VALID,17.0965,VALID,190,VALID,1.22316,
2000-03-07, 02:53:00,VALID,0,VALID,90.097,VALID,0,VALID,17.135,VALID,190,VALID,1.22135,
2000-03-07, 02:54:00,VALID,0,VALID,89.6023,VALID,-0.0169808,VALID,17.232,VALID,183,VALID,1.19271,
2000-03-07, 02:55:00,VALID,0,VALID,89.0479,VALID,0.0169808,VALID,17.3254,VALID,172,VALID,1.07566,
2000-03-07, 02:56:00,VALID,0,VALID,88.9106,VALID,0,VALID,17.3614,VALID,178,VALID,0.919922,
2000-03-07, 02:57:00,VALID,0,VALID,89.1789,VALID,0,VALID,17.3749,VALID,187,VALID,1.02632,
2000-03-07, 02:58:00,VALID,0,VALID,89.301,VALID,0.0169808,VALID,17.351,VALID,186,VALID,1.04883,
2000-03-07, 02:59:00,VALID,0,VALID,89.3671,VALID,0.0679233,VALID,17.3704,VALID,181,VALID,0.966747,
2000-03-07, 03:00:00,VALID,0,VALID,89.3735,VALID,0.0169808,VALID,17.393,VALID,182,VALID,0.974712,
2000-03-07, 03:01:01,VALID,0,VALID,89.3862,VALID,0.0339617,VALID,17.4259,VALID,191,VALID,1.15777,
2000-03-07, 03:02:00,VALID,0,VALID,89.3582,VALID,0.0169808,VALID,17.416,VALID,197,VALID,1.23163,
2000-03-07, 03:03:00,VALID,0,VALID,89.5782,VALID,-0.0849042,VALID,17.4561,VALID,179,VALID,1.30669,
2000-03-07, 03:04:00,VALID,0,VALID,89.3379,VALID,-0.101885,VALID,17.478,VALID,168,VALID,1.19243,
2000-03-07, 03:05:00,VALID,0,VALID,89.2819,VALID,-0.0849042,VALID,17.4655,VALID,169,VALID,1.03273,
2000-03-07, 03:06:00,VALID,0,VALID,89.8172,VALID,-0.101885,VALID,17.4139,VALID,196,VALID,1.03886,
2000-03-07, 03:07:00,VALID,0,VALID,89.9266,VALID,-0.101885,VALID,17.3721,VALID,207,VALID,0.907895,
2000-03-07, 03:08:00,VALID,0,VALID,90.762,VALID,-0.101885,VALID,17.3624,VALID,185,VALID,1.34141,
2000-03-07, 03:09:00,VALID,0,VALID,89.7829,VALID,-0.0679233,VALID,17.41,VALID,163,VALID,1.05009,
2000-03-07, 03:10:00,VALID,0,VALID,90.139,VALID,-0.101885,VALID,17.3327,VALID,161,VALID,1.12183,
2000-03-07, 03:11:01,VALID,0,VALID,91.1588,VALID,-0.0849042,VALID,17.2557,VALID,169,VALID,1.00827,
2000-03-07, 03:12:01,VALID,0,VALID,91.2847,VALID,-0.101885,VALID,17.2492,VALID,183,VALID,0.864583,
2000-03-07, 03:13:00,VALID,0,VALID,90.9858,VALID,-0.101885,VALID,17.2393,VALID,197,VALID,0.926192,
2000-03-07, 03:14:00,VALID,0,VALID,90.6616,VALID,-0.101885,VALID,17.2428,VALID,201,VALID,1.09087,
2000-03-07, 03:15:00,VALID,0,VALID,89.9597,VALID,-0.0849042,VALID,17.3041,VALID,196,VALID,1.16806,
2000-03-07, 03:16:00,VALID,0,VALID,89.5426,VALID,-0.101885,VALID,17.3911,VALID,189,VALID,1.12901,
2000-03-07, 03:17:00,VALID,0,VALID,88.9449,VALID,-0.0849042,VALID,17.4589,VALID,170,VALID,1.01753,
2000-03-07, 03:18:00,VALID,0,VALID,89.0212,VALID,0,VALID,17.4578,VALID,169,VALID,0.970189,
2000-03-07, 03:19:00,VALID,0,VALID,89.4714,VALID,0,VALID,17.3893,VALID,172,VALID,0.780078,
2000-03-07, 03:20:00,VALID,0,VALID,89.8592,VALID,0.0169808,VALID,17.3349,VALID,176,VALID,0.805321,
2000-03-07, 03:21:01,VALID,0,VALID,89.7575,VALID,0,VALID,17.322,VALID,180,VALID,0.788872,
2000-03-07, 03:22:00,VALID,0,VALID,89.4243,VALID,0.0339617,VALID,17.3088,VALID,199,VALID,0.773649,
2000-03-07, 03:23:00,VALID,0,VALID,89.5617,VALID,0.0169808,VALID,17.2701,VALID,221,VALID,0.910262,
2000-03-07, 03:24:00,VALID,0,VALID,89.8274,VALID,0,VALID,17.2152,VALID,215,VALID,1.01062,
2000-03-07, 03:25:00,VALID,0,VALID,89.7359,VALID,0.0169808,VALID,17.1765,VALID,217,VALID,0.544408,
2000-03-07, 03:26:00,VALID,0,VALID,89.7486,VALID,0,VALID,17.1412,VALID,203,VALID,0.722551,
2000-03-07, 03:27:00,VALID,0,VALID,90.2445,VALID,0.0169808,VALID,17.0672,VALID,191,VALID,0.550781,
2000-03-07, 03:28:00,VALID,0,VALID,90.4022,VALID,0,VALID,16.957,VALID,171,VALID,0.609175,
2000-03-07, 03:29:00,VALID,0,VALID,91.0977,VALID,0,VALID,16.8606,VALID,175,VALID,0.73137,
2000-03-07, 03:30:00,VALID,0,VALID,91.1448,VALID,0.0169808,VALID,16.8019,VALID,197,VALID,0.611579,
2000-03-07, 03:31:00,VALID,0,VALID,91.3889,VALID,0.0339617,VALID,16.7475,VALID,204,VALID,0.449013,
2000-03-07, 03:32:00,VALID,0,VALID,91.8187,VALID,0,VALID,16.6668,VALID,198,VALID,0.560742,
2000-03-07, 03:33:00,VALID,0,VALID,92.377,VALID,0.0169808,VALID,16.5861,VALID,175,VALID,0.84889,
2000-03-07, 03:34:00,VALID,0,VALID,92.6745,VALID,0.0339617,VALID,16.525,VALID,169,VALID,0.920139,
2000-03-07, 03:35:00,VALID,0,VALID,92.4838,VALID,0,VALID,16.5248,VALID,176,VALID,0.785056,
2000-03-07, 03:36:00,VALID,0,VALID,92.3605,VALID,0.0169808,VALID,16.5284,VALID,188,VALID,0.869655,
2000-03-07, 03:37:00,VALID,0,VALID,92.2079,VALID,0,VALID,16.5056,VALID,193,VALID,0.981898,
2000-03-07, 03:38:00,VALID,0,VALID,92.3961,VALID,0.0169808,VALID,16.4927,VALID,186,VALID,1.05152,
2000-03-07, 03:39:00,VALID,0,VALID,92.0375,VALID,0.0509425,VALID,16.5373,VALID,175,VALID,1.10036,
2000-03-07, 03:40:00,VALID,0,VALID,91.3724,VALID,0,VALID,16.6668,VALID,182,VALID,1.11123,
2000-03-07, 03:41:00,VALID,0,VALID,90.7341,VALID,0.0509425,VALID,16.7539,VALID,205,VALID,0.870988,
2000-03-07, 03:42:00,VALID,0,VALID,90.8536,VALID,0.0169808,VALID,16.7442,VALID,215,VALID,0.687706,
2000-03-07, 03:43:00,VALID,0,VALID,91.1295,VALID,0,VALID,16.6799,VALID,218,VALID,0.858964,
2000-03-07, 03:44:00,VALID,0,VALID,91.5059,VALID,0.0509425,VALID,16.602,VALID,213,VALID,0.801953,
2000-03-07, 03:45:00,VALID,0,VALID,91.9739,VALID,0.0339617,VALID,16.5214,VALID,207,VALID,0.862132,
2000-03-07, 03:46:00,VALID,0,VALID,92.1951,VALID,0,VALID,16.4798,VALID,195,VALID,1.08277,
2000-03-07, 03:47:00,VALID,0,VALID,92.1824,VALID,0,VALID,16.4802,VALID,190,VALID,1.11581,
2000-03-07, 03:48:00,VALID,0,VALID,91.6267,VALID,0.0849042,VALID,16.5545,VALID,188,VALID,1.10916,
2000-03-07, 03:49:00,VALID,0,VALID,90.9452,VALID,0.0679233,VALID,16.6573,VALID,191,VALID,1.08285,
2000-03-07, 03:50:00,VALID,0,VALID,90.3691,VALID,0.0339617,VALID,16.7608,VALID,193,VALID,1.14864,
2000-03-07, 03:51:00,VALID,0,VALID,89.7397,VALID,0.0509425,VALID,16.8613,VALID,195,VALID,1.28296,
2000-03-07, 03:52:00,VALID,0,VALID,89.2056,VALID,0.0339617,VALID,16.9351,VALID,190,VALID,1.43243,
2000-03-07, 03:53:00,VALID,0,VALID,88.5469,VALID,0.0509425,VALID,17.0188,VALID,186,VALID,1.46094,
2000-03-07, 03:54:00,VALID,0,VALID,88.0243,VALID,0.0169808,VALID,17.1253,VALID,187,VALID,1.38816,
2000-03-07, 03:55:00,VALID,0,VALID,87.8348,VALID,0.0169808,VALID,17.2096,VALID,187,VALID,1.30234,
2000-03-07, 03:56:00,VALID,0,VALID,87.7178,VALID,0.0679233,VALID,17.2419,VALID,195,VALID,1.37711,
2000-03-07, 03:57:00,VALID,0,VALID,87.7929,VALID,0.0169808,VALID,17.2352,VALID,194,VALID,1.25648,
2000-03-07, 03:58:00,VALID,0,VALID,87.7916,VALID,0.0169808,VALID,17.2357,VALID,189,VALID,1.36824,
2000-03-07, 03:59:00,VALID,0,VALID,87.6212,VALID,0.0169808,VALID,17.2512,VALID,189,VALID,1.32538,
2000-03-07, 04:00:00,VALID,0,VALID,87.2855,VALID,0.0509425,VALID,17.2899,VALID,189,VALID,1.33614,
2000-03-07, 04:01:00,VALID,0,VALID,87.035,VALID,0.0509425,VALID,17.342,VALID,193,VALID,1.25863,
2000-03-07, 04:02:00,VALID,0,VALID,86.9523,VALID,0.0339617,VALID,17.3482,VALID,198,VALID,1.23459,
2000-03-07, 04:03:00,VALID,0,VALID,86.8747,VALID,0,VALID,17.3493,VALID,198,VALID,1.18997,
2000-03-07, 04:04:00,VALID,0,VALID,86.965,VALID,0,VALID,17.3424,VALID,201,VALID,1.12059,
2000-03-07, 04:05:00,VALID,0,VALID,86.6916,VALID,-0.0849042,VALID,17.3528,VALID,202,VALID,1.21815,
2000-03-07, 04:06:00,VALID,0,VALID,86.5569,VALID,-0.0169808,VALID,17.3685,VALID,203,VALID,0.958934,